TimePST,TemperatureF,Dew PointF,Humidity,Sea Level PressureIn,VisibilityMPH,Wind Direction,Wind SpeedMPH,Gust SpeedMPH,PrecipitationIn,Events,Conditions,WindDirDegrees,DateUTC
12:50 AM,34.2,29.8,84,30.12,15.0,WNW,10.4,-,N/A,,Mostly Cloudy,290,2013-01-08 08:50:00
1:50 AM,37.8,30.6,75,30.12,15.0,NW,11.5,-,N/A,,Overcast,310,2013-01-08 09:50:00
2:50 AM,39.0,30.9,73,30.14,15.0,NW,12.7,-,N/A,,Overcast,310,2013-01-08 10:50:00
3:50 AM,38.8,30.2,71,30.11,15.0,West,9.2,-,N/A,,Overcast,280,2013-01-08 11:50:00
4:50 AM,38.7,29.8,71,30.11,15.0,West,6.9,-,N/A,,Overcast,260,2013-01-08 12:50:00
5:50 AM,36.7,30.2,77,30.12,15.0,South,8.1,-,N/A,,Overcast,170,2013-01-08 13:50:00
6:50 AM,38.7,31.5,75,30.11,15.0,East,11.5,-,0.00,,Overcast,100,2013-01-08 14:50:00
7:50 AM,35.8,32.0,86,30.12,15.0,SSW,4.6,-,N/A,,Overcast,210,2013-01-08 15:50:00
8:50 AM,35.1,32.5,91,30.12,15.0,NW,1.2,-,0.00,Rain,Light Rain,320,2013-01-08 16:50:00
9:50 AM,37.4,35.1,91,30.11,15.0,East,3.5,-,0.00,Rain,Light Rain,100,2013-01-08 17:50:00
10:50 AM,37.2,35.4,93,30.10,15.0,ENE,5.8,-,0.00,Rain,Light Rain,70,2013-01-08 18:50:00
11:50 AM,38.8,37.9,97,30.08,15.0,ENE,4.6,-,0.00,,Overcast,70,2013-01-08 19:50:00
12:50 PM,41.2,39.9,95,30.03,15.0,SSE,8.1,-,N/A,,Overcast,150,2013-01-08 20:50:00
1:50 PM,42.4,41.0,95,30.01,15.0,SE,5.8,-,N/A,,Overcast,140,2013-01-08 21:50:00
2:50 PM,41.2,38.5,90,29.99,15.0,NNW,6.9,-,N/A,,Mostly Cloudy,330,2013-01-08 22:50:00
3:50 PM,37.9,36.7,95,29.96,15.0,NW,8.1,-,N/A,,Mostly Cloudy,320,2013-01-08 23:50:00
4:50 PM,35.6,35.2,99,29.94,12.0,NNW,5.8,-,N/A,,Mostly Cloudy,330,2013-01-09 00:50:00
5:50 PM,34.2,33.4,97,29.91,12.0,North,5.8,-,N/A,,Partly Cloudy,350,2013-01-09 01:50:00
6:50 PM,34.0,33.4,98,29.88,12.0,NNE,4.6,-,N/A,,Partly Cloudy,30,2013-01-09 02:50:00
9:50 PM,49.8,31.3,49,29.86,15.0,South,23.0,-,N/A,,Scattered Clouds,180,2013-01-09 05:50:00
10:50 PM,51.6,31.3,46,29.86,15.0,South,25.3,-,N/A,,Scattered Clouds,180,2013-01-09 06:50:00
11:50 PM,51.8,31.3,46,29.86,15.0,South,26.5,32.2,N/A,,Mostly Cloudy,180,2013-01-09 07:50:00